Location: Lane
(33.5226°N, 79.8788°W)
Time: 16:12:12
(UTC+00:00)

Transit 2A - Pass Details

Date: 01 October 2022
Orbit: 598 x 959 km, 66.7° (Epoch: 06 December)

Event Time Altitude Azimuth Distance (km) Brightness Sun altitude
Rises 04:58:36 0° 230° (SW) 2,967 - -59.6°
Reaches altitude 10° 05:01:12 10° 241° (WSW) 2,014 - -59.6°
Maximum altitude 05:05:05 28° 302° (WNW) 1,146 - -59.6°
Drops below altitude 10° 05:08:52 10° 2° (N) 1,944 - -59.7°
Sets 05:11:20 0° 14° (NNE) 2,844 - -59.7°
